Tracking 29489 objects as of 10-Sep-2024
HD Live streaming from Space Station
objects crossing your sky now

SL-8 R/B

Track SL-8 R/B now!
10-day predictions


NORAD ID: 23093
Int'l Code: 1994-024B
Perigee: 969.9 km
Apogee: 985.7 km
Inclination: 82.9 °
Period: 104.5 minutes
Semi major axis: 7348 km
RCS: 8.1603 m2 (large)
Launch date: April 26, 1994
Source: Commonwealth of Independent States (former USSR) (CIS)
Launch site: PLESETSK MISSILE AND SPACE COMPLEX (PKMTR)

Note: This is a ROCKET BODY
Your satellite tracking list
Your tracking list is empty




NASA's NSSDC Master Catalog

Two Line Element Set (TLE):
1 23093U 94024B   24253.59577827  .00000239  00000-0  22208-3 0  9993
2 23093  82.9457 309.3060 0010757 153.3178 206.8536 13.78100053994935
Source of the keplerian elements: AFSPC